Flag for Germany Weather past 2 weeks in Rodgau, Hesse, Germany

Now
59 °F

Drizzle. Low clouds.


Feels Like: 59 °F
Forecast: 55 / 70 °F
Wind: 3 mph from South

Location: Frankfurt / M-Flughafen

Current Time: May 3, 2015 at 2:55:58 PM

Latest Report: May 3, 2015 at 2:00 PM


Visibility: 2 mi

Pressure: 29.71 "Hg

Humidity: 96%

Dew point: 58 °F

Location of RodgauLocation

Historic Weather in Rodgau — Graph

°F

Rodgau temperature yesterday

Maximum temperature yesterday: 61 °F (at 4:00 PM)
Minimum temperature yesterday: 35 °F (at 6:00 AM)
Average temperature yesterday: 49 °F

Past Weeks' High & Low Weather Summary

 TemperatureHumidityPressure
High74 °F (Apr 21, 5:00 PM)100% (Apr 26, 3:00 AM)30.42 "Hg (Apr 26, 3:00 AM)
Low32 °F (Apr 29, 6:00 AM)20% (Apr 21, 5:00 PM)29.57 "Hg (Apr 27, 7:00 AM)
Average53 °F65%30.01 "Hg
* Reported Apr 18 1:00 PM — May 3 1:00 PM, Rodgau, Weather by CustomWeather, © 2015

Note: Actual official high and low records may vary slightly from our data, if they occured in-between our weather recording intervals... More about our weather records

Advertising

Rodgau weather history for previous 24 hours

 ConditionsComfort  
Time TempWeatherWind HumidityBarometerVisibility
1:00 PM
Sun, May 3
59 °FCool.2 mph89%29.71 "HgN/A
12:00 PM57 °FLow clouds.2 mph93%29.72 "Hg7 mi
11:00 AM55 °FDrizzle. Low clouds.1 mph95%29.72 "Hg5 mi
10:00 AM54 °FDrizzle. Low clouds.2 mph95%29.73 "Hg4 mi
9:00 AM53 °FDrizzle. Low clouds.2 mph95%29.74 "Hg4 mi
8:00 AM53 °FOvercast.2 mph92%29.74 "Hg10 mi
7:00 AM52 °FLight rain. Overcast.3 mph94%29.73 "Hg10 mi
6:00 AM51 °FOvercast.2 mph93%29.75 "Hg12 mi
4:00 AM51 °FLight rain. Overcast.2 mph91%29.76 "Hg16 mi
3:00 AM51 °FOvercast.2 mph88%29.77 "Hg19 mi
2:00 AM50 °FOvercast.2 mph96%29.80 "Hg19 mi
1:00 AM50 °FOvercast.1 mph97%29.82 "Hg19 mi
12:00 AM51 °FLight rain. Overcast.2 mph85%29.85 "Hg19 mi
10:00 PM
Sat, May 2
52 °FPassing clouds.2 mph75%29.86 "Hg22 mi
9:00 PM56 °FOvercast.2 mph64%29.84 "Hg22 mi
8:00 PM59 °FOvercast.3 mph51%29.85 "Hg22 mi
7:00 PM60 °FOvercast.5 mph46%29.85 "Hg19 mi
6:00 PM60 °FOvercast.3 mph41%29.86 "Hg25 mi
4:00 PM61 °FOvercast.2 mph35%29.87 "Hg25 mi
3:00 PM60 °FOvercast.2 mph40%29.88 "Hg25 mi
2:00 PM60 °FOvercast.2 mph45%29.89 "Hg22 mi
Weather by CustomWeather, © 2015

See weather overviewHow to use our weather pages